When you browse on this site, cookies collect data to enhance your experience and personalize the content and advertising you see.
Visit our Privacy Policy to learn more. By continuing to use the site, you agree to this use of cookies and data.
  • In Latvia
  • List of Countries
  • For 7 days
  • Water Temperature
  • Satellite Maps
  • Weather Map
  • Weather Widgets
  • user-avatar
    Login

    Hourly Weather Santa Fe

    Today, 21 July, Sunday

    Time Temperature Precipitation Wind Pressure Humidity
    00:00 +21°C° 0 mm 6 mps 750 mmHg 74%
    01:00 +22°C° 0 mm 7 mps 749 mmHg 73%
    02:00 +22°C° 0 mm 8 mps 749 mmHg 71%
    03:00 +23°C° 0 mm 8 mps 748 mmHg 69%
    04:00 +23°C° 0 mm 8 mps 748 mmHg 68%
    05:00 +23°C° 0 mm 7 mps 747 mmHg 66%
    06:00 +23°C° 0 mm 7 mps 747 mmHg 66%
    07:00 +23°C° 0 mm 8 mps 748 mmHg 65%
    08:00 +23°C° 0 mm 8 mps 748 mmHg 64%
    09:00 +26°C° 0 mm 8 mps 748 mmHg 59%
    10:00 +27°C° 0 mm 9 mps 748 mmHg 54%
    11:00 +29°C° 0 mm 9 mps 748 mmHg 49%
    12:00 +31°C° 0 mm 9 mps 748 mmHg 47%
    13:00 +31°C° 0 mm 8 mps 747 mmHg 46%
    14:00 +32°C° 0 mm 7 mps 747 mmHg 44%
    15:00 +30°C° 0 mm 5 mps 747 mmHg 50%
    16:00 +29°C° 0 mm 3 mps 748 mmHg 55%
    17:00 +27°C° 0 mm 1 mps 749 mmHg 60%
    18:00 +23°C° 0.4 mm 4 mps 750 mmHg 62%
    19:00 +20°C° 0.4 mm 6 mps 751 mmHg 65%
    20:00 +16°C° 0.4 mm 9 mps 753 mmHg 67%
    21:00 +15°C° 0.5 mm 9 mps 754 mmHg 64%
    22:00 +13°C° 0.5 mm 8 mps 755 mmHg 61%
    23:00 +12°C° 0.5 mm 8 mps 756 mmHg 58%

    Tomorrow, 22 July, Monday

    Time Temperature Precipitation Wind Pressure Humidity
    00:00 +12°C° 0.2 mm 8 mps 757 mmHg 56%
    01:00 +12°C° 0.2 mm 7 mps 757 mmHg 53%
    02:00 +12°C° 0.2 mm 7 mps 758 mmHg 50%
    03:00 +13°C° 0 mm 6 mps 758 mmHg 49%
    04:00 +13°C° 0 mm 6 mps 759 mmHg 47%
    05:00 +13°C° 0 mm 5 mps 759 mmHg 45%
    06:00 +13°C° 0 mm 5 mps 759 mmHg 44%
    07:00 +13°C° 0 mm 5 mps 760 mmHg 43%
    08:00 +13°C° 0 mm 5 mps 761 mmHg 42%
    09:00 +13°C° 0 mm 5 mps 761 mmHg 41%
    10:00 +14°C° 0 mm 5 mps 762 mmHg 40%
    11:00 +14°C° 0 mm 5 mps 763 mmHg 40%
    12:00 +14°C° 0 mm 5 mps 762 mmHg 38%
    13:00 +14°C° 0 mm 5 mps 762 mmHg 37%
    14:00 +14°C° 0 mm 5 mps 762 mmHg 36%
    15:00 +14°C° 0 mm 5 mps 762 mmHg 37%
    16:00 +13°C° 0 mm 5 mps 762 mmHg 39%
    17:00 +12°C° 0 mm 4 mps 763 mmHg 40%
    18:00 +12°C° 0 mm 4 mps 763 mmHg 41%
    19:00 +12°C° 0 mm 4 mps 763 mmHg 42%
    20:00 +12°C° 0 mm 4 mps 763 mmHg 43%
    21:00 +11°C° 0 mm 4 mps 764 mmHg 46%
    22:00 +10°C° 0 mm 4 mps 764 mmHg 49%
    23:00 +10°C° 0 mm 4 mps 764 mmHg 52%

    Day after tomorrow, 23 July, Tuesday

    Time Temperature Precipitation Wind Pressure Humidity
    00:00 +10°C° 0 mm 4 mps 764 mmHg 53%
    01:00 +10°C° 0 mm 4 mps 764 mmHg 55%
    02:00 +10°C° 0 mm 4 mps 764 mmHg 56%
    03:00 +10°C° 0 mm 4 mps 764 mmHg 57%
    04:00 +10°C° 0 mm 4 mps 764 mmHg 59%
    05:00 +10°C° 0 mm 4 mps 764 mmHg 60%
    06:00 +9°C° 0 mm 5 mps 765 mmHg 60%
    07:00 +8°C° 0 mm 5 mps 765 mmHg 61%
    08:00 +8°C° 0 mm 5 mps 765 mmHg 61%
    09:00 +9°C° 0 mm 5 mps 766 mmHg 60%
    10:00 +10°C° 0 mm 5 mps 766 mmHg 59%
    11:00 +10°C° 0 mm 5 mps 767 mmHg 58%
    12:00 +12°C° 0 mm 5 mps 766 mmHg 56%
    13:00 +12°C° 0 mm 5 mps 766 mmHg 54%
    14:00 +13°C° 0 mm 5 mps 765 mmHg 52%
    15:00 +13°C° 0 mm 4 mps 765 mmHg 52%
    16:00 +12°C° 0 mm 4 mps 766 mmHg 53%
    17:00 +12°C° 0 mm 3 mps 766 mmHg 53%
    18:00 +12°C° 0 mm 3 mps 766 mmHg 53%
    19:00 +11°C° 0 mm 3 mps 766 mmHg 54%
    20:00 +11°C° 0 mm 3 mps 767 mmHg 54%
    21:00 +11°C° 0 mm 3 mps 767 mmHg 55%
    22:00 +10°C° 0 mm 3 mps 767 mmHg 56%
    23:00 +10°C° 0 mm 3 mps 768 mmHg 58%

    24 July, Wednesday

    Time Temperature Precipitation Wind Pressure Humidity
    00:00 +9°C° 0 mm 3 mps 768 mmHg 59%
    01:00 +9°C° 0 mm 3 mps 768 mmHg 61%
    02:00 +8°C° 0 mm 3 mps 768 mmHg 63%
    03:00 +8°C° 0 mm 3 mps 768 mmHg 63%
    04:00 +8°C° 0 mm 3 mps 769 mmHg 62%
    05:00 +8°C° 0 mm 3 mps 769 mmHg 62%
    06:00 +8°C° 0 mm 3 mps 769 mmHg 61%
    07:00 +7°C° 0 mm 4 mps 770 mmHg 60%
    08:00 +6°C° 0 mm 4 mps 770 mmHg 59%
    09:00 +8°C° 0 mm 4 mps 771 mmHg 52%
    10:00 +11°C° 0 mm 4 mps 771 mmHg 46%
    11:00 +12°C° 0 mm 5 mps 771 mmHg 39%
    12:00 +13°C° 0 mm 5 mps 771 mmHg 38%
    13:00 +14°C° 0 mm 5 mps 770 mmHg 36%
    14:00 +14°C° 0 mm 5 mps 770 mmHg 34%
    15:00 +13°C° 0 mm 4 mps 770 mmHg 38%
    16:00 +12°C° 0 mm 3 mps 770 mmHg 42%
    17:00 +11°C° 0 mm 3 mps 770 mmHg 46%
    18:00 +10°C° 0 mm 2 mps 771 mmHg 49%
    19:00 +9°C° 0 mm 2 mps 771 mmHg 52%
    20:00 +9°C° 0 mm 2 mps 771 mmHg 55%
    21:00 +8°C° 0 mm 2 mps 771 mmHg 57%
    22:00 +8°C° 0 mm 2 mps 771 mmHg 60%
    23:00 +7°C° 0 mm 2 mps 771 mmHg 62%

    25 July, Thursday

    Time Temperature Precipitation Wind Pressure Humidity
    00:00 +7°C° 0 mm 2 mps 771 mmHg 64%
    01:00 +6°C° 0 mm 2 mps 771 mmHg 67%
    02:00 +6°C° 0 mm 2 mps 771 mmHg 69%
    03:00 +5°C° 0 mm 2 mps 771 mmHg 74%
    04:00 +5°C° 0 mm 2 mps 770 mmHg 78%
    05:00 +4°C° 0 mm 2 mps 770 mmHg 83%
    06:00 +5°C° 0 mm 2 mps 770 mmHg 83%
    07:00 +5°C° 0 mm 2 mps 770 mmHg 84%
    08:00 +5°C° 0 mm 2 mps 771 mmHg 84%
    09:00 +7°C° 0 mm 3 mps 770 mmHg 75%
    10:00 +9°C° 0 mm 3 mps 770 mmHg 66%
    11:00 +11°C° 0 mm 3 mps 770 mmHg 57%
    12:00 +12°C° 0 mm 3 mps 770 mmHg 54%
    13:00 +12°C° 0 mm 3 mps 769 mmHg 51%
    14:00 +14°C° 0 mm 2 mps 768 mmHg 47%
    15:00 +13°C° 0 mm 2 mps 768 mmHg 53%
    16:00 +13°C° 0 mm 2 mps 768 mmHg 58%
    17:00 +12°C° 0 mm 2 mps 768 mmHg 63%
    18:00 +10°C° 0 mm 2 mps 768 mmHg 70%
    19:00 +9°C° 0 mm 2 mps 768 mmHg 76%
    20:00 +8°C° 0 mm 2 mps 768 mmHg 83%
    21:00 +8°C° 0 mm 2 mps 768 mmHg 85%
    22:00 +7°C° 0 mm 2 mps 768 mmHg 88%
    23:00 +7°C° 0 mm 2 mps 768 mmHg 90%

    26 July, Friday

    Time Temperature Precipitation Wind Pressure Humidity
    00:00 +7°C° 0 mm 2 mps 768 mmHg 91%
    01:00 +7°C° 0 mm 2 mps 768 mmHg 92%
    02:00 +6°C° 0 mm 2 mps 768 mmHg 92%
    03:00 +6°C° 0 mm 2 mps 768 mmHg 93%
    04:00 +6°C° 0 mm 2 mps 768 mmHg 93%
    05:00 +6°C° 0 mm 2 mps 768 mmHg 93%
    06:00 +6°C° 0 mm 2 mps 768 mmHg 92%
    07:00 +6°C° 0 mm 2 mps 768 mmHg 91%
    08:00 +7°C° 0 mm 2 mps 768 mmHg 89%
    09:00 +9°C° 0 mm 2 mps 768 mmHg 81%
    10:00 +12°C° 0 mm 1 mps 768 mmHg 72%
    11:00 +14°C° 0 mm 1 mps 768 mmHg 63%
    12:00 +15°C° 0 mm 1 mps 768 mmHg 59%
    13:00 +16°C° 0 mm 1 mps 767 mmHg 55%
    14:00 +18°C° 0 mm 1 mps 766 mmHg 51%
    15:00 +16°C° 0 mm 1 mps 766 mmHg 55%
    16:00 +15°C° 0 mm 1 mps 766 mmHg 58%
    17:00 +14°C° 0 mm 1 mps 766 mmHg 62%
    18:00 +13°C° 0 mm 1 mps 766 mmHg 66%
    19:00 +12°C° 0 mm 1 mps 767 mmHg 69%
    20:00 +10°C° 0 mm 2 mps 767 mmHg 72%
    21:00 +9°C° 0 mm 2 mps 767 mmHg 77%
    22:00 +9°C° 0 mm 2 mps 767 mmHg 81%
    23:00 +9°C° 0 mm 2 mps 768 mmHg 86%
    Show more